{"data":{"norad_id":67988,"intl_designator":"2026-039C","name":"STARLINK-36734","alt_names":[],"object_type":"PAYLOAD","status":"ACTIVE","operator":null,"country":"US","launch_date":"2026-02-27","launch_site_code":"AFETR","launch_vehicle":null,"mission":null,"orbit_class":"UNKNOWN","rcs_meters":null,"size_class":null,"mass_kg":null,"dimensions":null,"purposes":["comms"],"wikipedia_slug":null,"has_3d_model":false,"image_url":null,"decayed_at":null,"tle_current":{"epoch":"2026-05-24T22:52:29.574912Z","epoch_age_seconds":75132,"freshness":"FRESH","line1":"1 67988U 26039C   26144.95312008  .00012132  00000+0  44944-3 0  9999","line2":"2 67988  43.0003 338.5462 0001489 262.5929  97.4753 15.27596402 13367","mean_motion":15.27596402,"eccentricity":0.0001489,"inclination_deg":43.0003,"raan_deg":338.5462,"arg_perigee_deg":262.5929,"mean_anomaly_deg":97.4753,"bstar":0.00044944,"rev_number":1336,"period_min":94.265736559387,"perigee_km":481.97835969375,"apogee_km":484.02160628728,"semimajor_km":6861.1369829905,"source":"CELESTRAK","updated_at":"2026-05-25T13:38:21.779015Z"}}}